Location: Berduj
(43.0019°N, 22.3781°E)
Time: 18:11:51
(UTC+00:00)

COSMOS 2406 - Pass Details

Date: 19 October 2019
Orbit: 842 x 865 km, 71.0° (Epoch: 21 November)

Event Time Altitude Azimuth Distance (km) Brightness Sun altitude
Rises 16:54:41 0° 332° (NNW) 3,454 6.8 -14.0°
Reaches altitude 10° 16:57:10 10° 330° (NNW) 2,511 6.1 -14.4°
Maximum altitude 17:02:54 67° 250° (WSW) 930 3.6 -15.5°
Drops below altitude 10° 17:08:33 10° 168° (SSE) 2,483 5.5 -16.5°
Sets 17:11:00 0° 166° (SSE) 3,411 6.2 -17.0°
